Regional Weather Roundup
Issued by NWS Upton, NY

Current Version | Previous Version | Graphics & Text | Print | Product List | Glossary Off
Versions: 1 2 3 4 5 6 7 8 9 10 11 12 13 14 15 16 17 18 19 20 21 22 23 24 25 26 27 28 29 30 31 32 33 34 35 36 37 38 39 40 41 42 43 44 45 46 47 48 49 50

000
ASUS41 KOKX 271905
RWROKX
REGIONAL WEATHER ROUNDUP
NATIONAL WEATHER SERVICE NEW YORK NY
300 PM EDT WED AUG 27 2014

NOTE: "FAIR" INDICATES FEW OR NO CLOUDS BELOW 12,000 FEET WITH NO
SIGNIFICANT WEATHER AND/OR OBSTRUCTIONS TO VISIBILITY.

NYZ071-072-176-178-NJZ106-104-272000-
NEW YORK CITY METRO AREA


CITY           SKY/WX    TMP DP  RH WIND       PRES   REMARKS
CENTRAL PARK   SUNNY     89  62  40 CALM      29.94F
LAGUARDIA APRT MOSUNNY   89  61  38 SW8G28    29.91F
KENNEDY INTL   MOSUNNY   84  65  52 S10       29.94F
NEWARK/LIBERTY MOSUNNY   92  61  35 W10G16    29.91F HX  92
BRNX BOT. GARD   N/A     90  64  43 SE3       29.92F HX  91
TETERBORO      MOSUNNY   90  62  39 SW13      29.90F HX  90
$$

NYZ177-179-078>081-272000-
LONG ISLAND NEW YORK

CITY           SKY/WX    TMP DP  RH WIND       PRES   REMARKS
FARMINGDALE    SUNNY     83  65  54 S13       29.94F
ISLIP          SUNNY     85  63  47 SW10      29.92F
SHIRLEY        SUNNY     82  64  54 S12       29.94F
WESTHAMPTON    SUNNY     82  63  52 SW9       29.96F
MONTAUK POINT    N/A     79  64  60 S8        29.96F
$$

NYZ052-065-067-272000-
HUDSON VALLEY

CITY           SKY/WX    TMP DP  RH WIND       PRES   REMARKS
WHITE PLAINS   MOSUNNY   88  63  43 VRB7      29.92F
NEWBURGH       MOSUNNY   90  70  51 W12       29.93F HX  95
MONTGOMERY     MOSUNNY   90  68  48 W8        29.89F HX  94
POUGHKEEPSIE   MOSUNNY   88  68  51 SW5       29.88F HX  91
ALBANY         CLOUDY    81  70  69 W7        29.92F
$$

NJZ001-105-106-008-010-013-015-019>022-104-272000-
NEW JERSEY

CITY           SKY/WX    TMP DP  RH WIND       PRES   REMARKS
NEWARK/LIBERTY MOSUNNY   92  61  35 W10G16    29.91F HX  92
TETERBORO      MOSUNNY   90  62  39 SW13      29.90F HX  90
CALDWELL       SUNNY     88  65  46 SW6       29.92F HX  90
MORRISTOWN     MOSUNNY   90  66  45 SW9       29.93F HX  92
SOMERVILLE     SUNNY     90  65  43 NW8       29.91F HX  92
LINDEN         FAIR      95  64  35 SW5       29.93F HX  96
SUSSEX         MOSUNNY   89  69  51 SW8       29.93F HX  93
ANDOVER          N/A     85  68  56 SW6       29.94F
TRENTON        SUNNY     88  61  40 VRB6      29.93F
MILLVILLE      SUNNY     87  63  44 VRB7      29.96F
ATLANTIC CITY  MOSUNNY   87  65  47 VRB3      29.95F
WRIGHTSTOWN    SUNNY     87  64  47 SW6       29.92F
TOMS RIVER     SUNNY     90  61  37 W5        29.94F
BELMAR         SUNNY     88  59  37 SW9       29.94F
$$

PAZ047>061-062-071-272000-
EASTERN PENNSYLVANIA

CITY           SKY/WX    TMP DP  RH WIND       PRES   REMARKS
PHILADELPHIA   MOSUNNY   88  64  44 W12       29.95F
ALLENTOWN      SUNNY     88  67  49 SW8       29.94F HX  91
SCRANTON       SUNNY     87  65  47 W6        29.96F
$$

CTZ002-004>006-009-010-012-RIZ004-006-007-MAZ004-011-015-272000-
SOUTHERN NEW ENGLAND
 IN CT

CITY           SKY/WX    TMP DP  RH WIND       PRES   REMARKS
BRADLEY INTL   MOSUNNY   89  66  46 SW12      29.88F HX  91
HARTFORD       MOSUNNY   87  66  49 SE7       29.88F
DANBURY        SUNNY     86  66  51 W6        29.93F
WTRBRY/OXFORD  MOSUNNY   86  68  54 SW6       29.96F
BRIDGEPORT     SUNNY     86  65  49 S12       29.91F
MERIDEN        MOSUNNY   89  66  46 S10       29.90F HX  91
NEW HAVEN      MOSUNNY   86  69  56 S8        29.92F HX  90
CHESTER        FAIR      82  64  54 S8        29.94F
GROTON         SUNNY     77  69  76 S10       29.93F
WILLIMANTIC    SUNNY     87  65  47 SW10      29.92F

 IN RI

CITY           SKY/WX    TMP DP  RH WIND       PRES   REMARKS
PROVIDENCE     MOSUNNY   87  62  43 W17G23    29.91F
BLOCK ISLAND   SUNNY     77  66  69 SW15      29.96F
WESTERLY       SUNNY     78  65  63 S14       29.95F

 IN MA

CITY           SKY/WX    TMP DP  RH WIND       PRES   REMARKS
BOSTON         MOSUNNY   89  66  46 SW16G24   29.86F HX  91
WORCESTER      MOSUNNY   83  67  58 W14       29.94F
WESTFIELD      PTSUNNY   87  68  52 SW8       29.89F HX  90
PROVINCETOWN   SUNNY     79  64  61 SW17G23   29.90F
NANTUCKET      SUNNY     75  68  78 SW12      29.95F
$$

ANZ330-335-338-340-345-350-353-355-272000-
COASTAL MARINE OBSERVATIONS


STATION/POSITION TIME  SKY/WX   TEMP    WIND        PRES    VSBY  WAVE
                                AIR SEA DIR/SP/G                  HT/PER
                 (UTC)          (F)     (DEG/KT/KT) (MB)    (MI)  (FT/S)
NY HARB ENTRANCE NOT AVBL
4S FIRE IS       NOT AVBL
23SW MTP         1900                                 N/A           4/12
HUDSON CANYON    1900            73 76  290/  4/  6 1014.8          5/11
EXECUTION ROCKS  1900            82 76  210/  8/ 12   N/A
WESTERN LI SOUND 1900            82     200/  4/  6   N/A           0
CENTRAL LI SOUND 1800            78 75  220/  2/  4   N/A           1/ 2
EASTERN LI SOUND 1800            75 70  200/  2/  4   N/A
ROBBINS REEF     1900            81     160/ 16/ 18   N/A
$$


>>>>>>>>>>>>>>>>>>>>>>>>>>>> KEY <<<<<<<<<<<<<<<<<<<<<<<<<<<
>                                                          <
>     SKY/WX - SKY CONDITION/PRESENT WEATHER               <
>     TMP    - TEMPERATURE IN FAHRENHEIT                   <
>     DP     - DEWPOINT IN FAHRENHEIT                      <
>     RH     - RELATIVE HUMIDITY IN PERCENT                <
>     WIND   - DIRECTION AND SPEED IN MPH                  <
>     PRES   - MEAN SEA LEVEL PRESSURE IN INCHES OF HG     <
>     WCI    - WIND CHILL INDEX                            <
>     VSB    - VISIBILITY IN MILES                         <
>     HX     - HEAT INDEX                                  <
>     TC     - TEMPERATURE IN CELSIUS                      <
>     VRB    - VARIABLE WIND DIRECTION                     <
>                                                          <
>>>>>>>>>>>>>>>>>>>>>>>>>>>> KEY <<<<<<<<<<<<<<<<<<<<<<<<<<<





USA.gov is the U.S. government's official web portal to all federal, state and local government web resources and services.